Weather History for Tulsa Jones, OK

Change the Weather History Date:

Thursday, December 19, 2013

  Actual Average (KTUL) Record (KTUL)
Temperature  
Mean Temperature 58 °F 38 °F  
Max Temperature 64 °F 48 °F 70 °F (1967)
Min Temperature 53 °F 29 °F -1 °F (1924)
Degree Days  
Heating Degree Days 6 27  
Month to date heating degree days 466  
Since 1 July heating degree days 1102  
Growing Degree Days 8 (Base 50)    
Moisture  
Dew Point 51 °F    
Average Humidity 72    
Maximum Humidity 81    
Minimum Humidity 62    
Precipitation  
Precipitation 0.00 in 0.08 in 2.66 in (1898)
Month to date precipitation 1.61  
Year to date precipitation 40.09  
Sea Level Pressure  
Sea Level Pressure 29.78 in    
Wind  
Wind Speed 12 mph (South)    
Max Wind Speed 20 mph    
Max Gust Speed 32 mph    
Visibility 10 miles    
Events      
T = Trace of Precipitation, MM = Missing Value Source: NWS Daily Summary

Daily Weather History Graph

Daily Weather History Graph

Search for Another Location

Airport:

Trip Planner

Search our weather history database for the weather conditions in past years. The results will help you decide how hot, cold, wet, or windy it might be!

Date:

Astronomy

Dec. 19, 2013 Rise Set
Actual Time 7:29 AM CST 5:12 PM CST
Civil Twilight 7:01 AM CST 5:41 PM CST
Nautical Twilight 6:29 AM CST 6:13 PM CST
Astronomical Twilight 5:57 AM CST 6:44 PM CST
Moon 7:35 PM CST (12/19) 8:52 AM CST (12/19)
Length of Visible Light 10h 39m
Length of Day
9h 42m
Waning Gibbous, 95% of the Moon is Illuminated
Dec 19
Waning Gibbous
Dec 25
Last Quarter
Jan 1
New
Jan 7
First Quarter
Jan 15
Full

Hourly Weather History & Observations

Time (CST) Temp. Dew Point Humidity Pressure Visibility Wind Dir Wind Speed Gust Speed Precip Events Conditions
12:53 AM 57.0 °F 44.1 °F 62% 29.91 in 10.0 mi South 10.4 mph - N/A   Clear
1:53 AM 57.0 °F 44.1 °F 62% 29.90 in 10.0 mi South 11.5 mph 21.9 mph N/A   Clear
2:53 AM 57.0 °F 44.1 °F 62% 29.88 in 10.0 mi South 15.0 mph 23.0 mph N/A   Clear
3:53 AM 55.9 °F 45.0 °F 67% 29.87 in 10.0 mi South 15.0 mph 23.0 mph N/A   Clear
4:53 AM 55.9 °F 45.0 °F 67% 29.86 in 10.0 mi South 10.4 mph 20.7 mph N/A   Clear
5:53 AM 55.0 °F 46.0 °F 72% 29.84 in 10.0 mi South 10.4 mph - N/A   Partly Cloudy
6:30 AM 53.6 °F 46.4 °F 77% 29.81 in 10.0 mi South 9.2 mph - N/A   Mostly Cloudy
6:53 AM 55.0 °F 48.0 °F 77% 29.82 in 10.0 mi South 11.5 mph - N/A   Mostly Cloudy
7:53 AM 55.9 °F 50.0 °F 80% 29.82 in 10.0 mi South 11.5 mph 19.6 mph N/A   Overcast
8:53 AM 57.9 °F 51.1 °F 78% 29.82 in 10.0 mi South 13.8 mph 24.2 mph N/A   Overcast
9:53 AM 59.0 °F 51.1 °F 75% 29.83 in 10.0 mi South 19.6 mph 32.2 mph N/A   Overcast
10:53 AM 60.1 °F 52.0 °F 75% 29.83 in 10.0 mi South 15.0 mph 25.3 mph N/A   Overcast
11:53 AM 60.1 °F 52.0 °F 75% 29.81 in 10.0 mi South 12.7 mph 20.7 mph N/A   Overcast
12:53 PM 61.0 °F 52.0 °F 72% 29.75 in 10.0 mi South 18.4 mph 32.2 mph N/A   Overcast
1:53 PM 63.0 °F 52.0 °F 67% 29.72 in 10.0 mi SSW 18.4 mph 26.5 mph N/A   Overcast
2:39 PM 64.4 °F 51.8 °F 64% 29.68 in 10.0 mi South 13.8 mph 26.5 mph N/A   Overcast
2:53 PM 64.0 °F 52.0 °F 65% 29.70 in 10.0 mi South 17.3 mph 23.0 mph N/A   Mostly Cloudy
3:53 PM 64.0 °F 52.0 °F 65% 29.70 in 10.0 mi South 16.1 mph 19.6 mph N/A   Scattered Clouds
4:53 PM 64.0 °F 53.1 °F 67% 29.71 in 10.0 mi South 15.0 mph 21.9 mph N/A   Overcast
5:53 PM 63.0 °F 53.1 °F 70% 29.71 in 10.0 mi South 8.1 mph - N/A   Mostly Cloudy
6:53 PM 62.1 °F 53.1 °F 72% 29.70 in 10.0 mi South 9.2 mph 16.1 mph N/A   Clear
7:53 PM 62.1 °F 54.0 °F 75% 29.70 in 10.0 mi South 8.1 mph - N/A   Clear
8:53 PM 62.1 °F 55.0 °F 78% 29.70 in 10.0 mi South 6.9 mph - N/A   Clear
9:53 PM 63.0 °F 55.9 °F 78% 29.70 in 10.0 mi South 9.2 mph 17.3 mph N/A   Clear
10:53 PM 63.0 °F 55.9 °F 78% 29.70 in 10.0 mi South 11.5 mph - N/A   Clear
11:53 PM 63.0 °F 57.0 °F 81% 29.70 in 10.0 mi SSW 10.4 mph - N/A   Clear